Find Starlink 5260

NORAD ID: 55275 Int'l Des: 2023-010 Owner: SPXS Country: US Constellation: starlink operational
LEOCIRCULAR

Live Position

Loading 3D Globe...

About Starlink 5260

Description loading...

Upcoming Passes

Passes for default location (London). Set your location on the main map for personalized predictions.

Altitude History

Loading altitude history...

Two-Line Element Set

1 55275U 23010G 26127.28663525 -.00001398 00000-0 -10938-3 0 9992
2 55275 70.0017 236.8224 0005184 279.0375 81.0198 14.98308795182056
Epoch: May 7, 2026 • Age: 8 hours

Current Status

Altitude 578.3 km
Velocity 7.57 km/s
Sub-Earth Point 36.14°N, 159.88°E
Launch Date Jan 19, 2023
Age 3.2 years
Type internet

Technical Details

Classification Payload
Mass 305.00 kg
Dry Mass 290.00 kg
Total Mass 305.00 kg
Length 0.20 m
Diameter 2.80 m
Span 9.00 m
Shape Box + pan
Manufacturer SPXS
Bus Type Starlink
Phase Status In Orbit
Owner/State SPXS/US

Most Searched